Flag for U.S.A. Weather past 2 weeks in Raleigh, North Carolina, U.S.A.

Now
71 °F

Scattered clouds.


Feels Like: 71 °F
Forecast: 67 / 87 °F
Wind: 3 mph from Southwest

Location: Raleigh-Durham International Airport

Current Time: May 29, 2015 at 8:31:33 AM

Latest Report: May 29, 2015 at 7:51 AM


Visibility: 10 mi

Pressure: 30.24 "Hg

Humidity: 81%

Dew point: 65 °F

Location of RaleighLocation

Historic Weather in Raleigh — Graph

°F

Raleigh temperature yesterday

Maximum temperature yesterday: 85 °F (at 2:51 PM)
Minimum temperature yesterday: 69 °F (at 12:51 AM)
Average temperature yesterday: 76 °F

Past Weeks' High & Low Weather Summary

 TemperatureHumidityPressure
High90 °F (May 18, 2:51 PM)97% (May 19, 11:51 PM)30.45 "Hg (May 19, 11:51 PM)
Low49 °F (May 23, 5:51 AM)31% (May 23, 4:51 PM)29.84 "Hg (May 21, 12:56 PM)
Average71 °F69%30.18 "Hg
* Reported May 14 6:51 AM — May 29 6:51 AM, Raleigh, Weather by CustomWeather, © 2015

Note: Actual official high and low records may vary slightly from our data, if they occured in-between our weather recording intervals... More about our weather records

Advertising

Raleigh weather history for previous 24 hours

 ConditionsComfort  
Time TempWeatherWind HumidityBarometerVisibility
6:51 AM
Fri, May 29
68 °FPassing clouds.6 mph87%30.21 "Hg10 mi
5:51 AM68 °FPassing clouds.No wind87%30.19 "Hg10 mi
4:51 AM69 °FPassing clouds.3 mph87%30.18 "Hg10 mi
3:51 AM70 °FPassing clouds.No wind87%30.19 "Hg10 mi
2:51 AM69 °FPassing clouds.3 mph90%30.19 "Hg10 mi
1:51 AM71 °FPassing clouds.3 mph87%30.20 "Hg10 mi
12:51 AM70 °FPassing clouds.No wind93%30.21 "Hg10 mi
11:51 PM
Thu, May 28
73 °FPartly cloudy.3 mph88%30.20 "Hg10 mi
10:51 PM74 °FLight rain. Passing clouds.9 mph85%30.20 "Hg10 mi
9:51 PM77 °FLight rain. Passing clouds.3 mph71%30.19 "Hg10 mi
8:51 PM78 °FBroken clouds.6 mph71%30.17 "Hg10 mi
7:51 PM81 °FBroken clouds.3 mph65%30.16 "Hg10 mi
6:51 PM83 °FScattered clouds.6 mph59%30.14 "Hg10 mi
5:51 PM85 °FScattered clouds.No wind53%30.14 "Hg10 mi
4:51 PM84 °FPartly sunny.7 mph61%30.16 "Hg10 mi
3:51 PM84 °FBroken clouds.6 mph61%30.16 "Hg10 mi
2:51 PM85 °FBroken clouds.No wind57%30.18 "Hg10 mi
1:51 PM82 °FBroken clouds.6 mph63%30.20 "Hg10 mi
12:51 PM83 °FBroken clouds.6 mph65%30.21 "Hg10 mi
11:51 AM80 °FBroken clouds.5 mph74%30.23 "Hg10 mi
10:51 AM75 °FMostly cloudy.5 mph82%30.23 "Hg10 mi
9:51 AM73 °FMostly cloudy.3 mph83%30.25 "Hg8 mi
8:51 AM72 °FPartly sunny.5 mph87%30.23 "Hg7 mi
Weather by CustomWeather, © 2015

See weather overviewHow to use our weather pages